{"data":{"norad_id":58677,"epoch":"2026-05-25T00:55:03.223200Z","epoch_age_seconds":78549,"freshness":"FRESH","line1":"1 58677U 23211L   26145.03823175  .00000037  00000+0  10854-4 0  9990","line2":"2 58677  43.0040  13.8875 0001455 261.0903  98.9784 15.27593750134146","mean_motion":15.2759375,"eccentricity":0.0001455,"inclination_deg":43.004,"raan_deg":13.8875,"arg_perigee_deg":261.0903,"mean_anomaly_deg":98.9784,"bstar":1.0854e-5,"rev_number":13414,"period_min":94.265900210707,"perigee_km":482.00962731552,"apogee_km":484.00622048838,"semimajor_km":6861.1449239019,"source":"CELESTRAK","updated_at":"2026-05-25T13:38:18.711873Z"}}